Birmingham, United Kingdom

2:27 AM BST on July 27, 2017 (GMT +0100)
Birmingham

Weather History for EGBB - August, 2013

Change the Weather History Date:

Friday, August 2, 2013

  Actual Average Record
Temperature  
Mean Temperature 68 °F -  
Max Temperature 77 °F 68 °F 86 °F (1999)
Min Temperature 59 °F 51 °F 44 °F (2003)
Cooling Degree Days 4    
Growing Degree Days 18 (Base 50)    
Moisture  
Dew Point 59 °F    
Average Humidity 76    
Maximum Humidity 94    
Minimum Humidity 50    
Precipitation  
Precipitation 0.00 in 0.09 in - ()
Sea Level Pressure  
Sea Level Pressure 29.72 in    
Wind  
Wind Speed 9 mph ()    
Max Wind Speed 17 mph    
Max Gust Speed 26 mph    
Visibility 6.2 miles    
Events Rain , Thunderstorm    
Averages and records for this station are not official NWS values.
T = Trace of Precipitation, MM = Missing Value Source: Averaged Metar Reports

Daily Weather History Graph

Daily Weather History Graph

Search for Another Location

Airport or City:

Trip Planner

Search our weather history database for the weather conditions in past years. The results will help you decide how hot, cold, wet, or windy it might be!

Date:

Astronomy

Aug. 02, 2013 Rise Set
Actual Time 5:28 AM BST 8:56 PM BST
Civil Twilight 4:46 AM BST 9:38 PM BST
Nautical Twilight 3:50 AM BST 10:34 PM BST
Astronomical Twilight 2:26 AM BST 11:55 PM BST
Moon 1:33 AM BST (8/2) 5:48 PM BST (8/2)
Length of Visible Light 16h 51m
Length of Day
15h 28m
Waning Crescent, 17% of the Moon is Illuminated
Aug 2
Waning Crescent
Aug 6
New
Aug 14
First Quarter
Aug 21
Full
Aug 28
Last Quarter

Hourly Weather History & Observations

Time (BST) Temp. Dew Point Humidity Pressure Visibility Wind Dir Wind Speed Gust Speed Precip Events Conditions
12:20 AM 69.8 °F 62.6 °F 78% 29.71 in - SW 10.4 mph - N/A   Clear
12:50 AM 68.0 °F 62.6 °F 83% 29.71 in - SSW 9.2 mph - N/A   Clear
1:20 AM 66.2 °F 62.6 °F 88% 29.71 in - SW 8.1 mph - N/A   Clear
1:50 AM 64.4 °F 60.8 °F 88% 29.71 in 5.0 mi SSW 6.9 mph - N/A   Unknown
2:20 AM 64.4 °F 60.8 °F 88% 29.71 in 5.6 mi South 8.1 mph - N/A   Unknown
2:50 AM 62.6 °F 59.0 °F 88% 29.71 in 6.2 mi South 10.4 mph - N/A   Unknown
3:20 AM 62.6 °F 59.0 °F 88% 29.71 in - SSW 10.4 mph - N/A   Clear
3:50 AM 62.6 °F 59.0 °F 88% 29.71 in 6.2 mi SSW 9.2 mph - N/A   Partly Cloudy
4:20 AM 62.6 °F 59.0 °F 88% 29.71 in 6.2 mi South 6.9 mph - N/A   Partly Cloudy
4:50 AM 60.8 °F 59.0 °F 94% 29.71 in 6.2 mi South 8.1 mph - N/A   Mostly Cloudy
5:20 AM 62.6 °F 59.0 °F 88% 29.71 in 6.2 mi South 8.1 mph - N/A   Mostly Cloudy
5:50 AM 62.6 °F 59.0 °F 88% 29.71 in 6.2 mi South 10.4 mph - N/A   Mostly Cloudy
6:20 AM 62.6 °F 59.0 °F 88% 29.71 in 6.2 mi South 8.1 mph - N/A   Mostly Cloudy
6:50 AM 62.6 °F 60.8 °F 94% 29.71 in 6.2 mi SSE 9.2 mph - N/A   Mostly Cloudy
7:20 AM 64.4 °F 60.8 °F 88% 29.71 in 6.2 mi SSE 8.1 mph - N/A Rain Light Rain
7:50 AM 64.4 °F 60.8 °F 88% 29.74 in 6.2 mi SSE 10.4 mph - N/A   Mostly Cloudy
8:20 AM 66.2 °F 62.6 °F 88% 29.71 in 6.2 mi South 9.2 mph - N/A   Mostly Cloudy
8:50 AM 66.2 °F 60.8 °F 83% 29.71 in 6.2 mi SSW 10.4 mph - N/A   Mostly Cloudy
9:20 AM 66.2 °F 60.8 °F 83% 29.71 in 6.2 mi SSW 10.4 mph - N/A   Mostly Cloudy
9:50 AM 68.0 °F 60.8 °F 78% 29.74 in 6.2 mi South 10.4 mph - N/A   Mostly Cloudy
10:20 AM 68.0 °F 60.8 °F 78% 29.74 in 6.2 mi South 11.5 mph - N/A   Mostly Cloudy
10:50 AM 69.8 °F 62.6 °F 78% 29.71 in 6.2 mi South 11.5 mph - N/A   Mostly Cloudy
11:20 AM 69.8 °F 60.8 °F 73% 29.74 in 6.2 mi South 12.7 mph - N/A   Mostly Cloudy
11:50 AM 71.6 °F 60.8 °F 69% 29.74 in 6.2 mi SW 10.4 mph - N/A   Scattered Clouds
12:20 PM 75.2 °F 57.2 °F 53% 29.74 in 6.2 mi South 16.1 mph - N/A   Scattered Clouds
12:50 PM 73.4 °F 57.2 °F 57% 29.71 in 6.2 mi SSW 15.0 mph - N/A   Partly Cloudy
1:20 PM 75.2 °F 55.4 °F 50% 29.74 in 6.2 mi SSW 17.3 mph - N/A   Mostly Cloudy
1:50 PM 73.4 °F 57.2 °F 57% 29.71 in 6.2 mi South 12.7 mph - N/A   Scattered Clouds
2:20 PM 75.2 °F 57.2 °F 53% 29.71 in 6.2 mi SSW 13.8 mph - N/A   Scattered Clouds
2:50 PM 75.2 °F 57.2 °F 53% 29.71 in 6.2 mi South 11.5 mph - N/A   Scattered Clouds
3:20 PM 75.2 °F 57.2 °F 53% 29.71 in 6.2 mi South 11.5 mph - N/A   Scattered Clouds
3:50 PM 77.0 °F 57.2 °F 50% 29.71 in 6.2 mi South 11.5 mph - N/A   Partly Cloudy
4:20 PM 75.2 °F 57.2 °F 53% 29.71 in 6.2 mi South 13.8 mph - N/A   Partly Cloudy
4:50 PM 71.6 °F 57.2 °F 60% 29.71 in 6.2 mi South 11.5 mph - N/A Rain Rain Showers
5:20 PM 64.4 °F 60.8 °F 88% 29.74 in 6.2 mi South 11.5 mph - N/A   Mostly Cloudy
5:50 PM 68.0 °F 62.6 °F 83% 29.71 in 6.2 mi South 6.9 mph - N/A   Scattered Clouds
6:20 PM 69.8 °F 62.6 °F 78% 29.71 in 6.2 mi South 9.2 mph - N/A   Partly Cloudy
6:50 PM 71.6 °F 62.6 °F 73% 29.71 in 6.2 mi South 9.2 mph - N/A   Partly Cloudy
7:20 PM 71.6 °F 60.8 °F 69% 29.71 in 6.2 mi South 12.7 mph - N/A   Partly Cloudy
7:50 PM 71.6 °F 59.0 °F 64% 29.71 in 6.2 mi South 11.5 mph - N/A   Partly Cloudy
8:20 PM 69.8 °F 57.2 °F 64% 29.71 in 6.2 mi SSW 10.4 mph - N/A   Partly Cloudy
8:50 PM 68.0 °F 57.2 °F 68% 29.74 in 6.2 mi SW 11.5 mph - N/A Thunderstorm Partly Cloudy
9:20 PM 66.2 °F 57.2 °F 73% 29.74 in 6.2 mi SSW 13.8 mph 26.5 mph N/A Thunderstorm Partly Cloudy
9:50 PM 66.2 °F 57.2 °F 73% 29.74 in 6.2 mi SW 12.7 mph - N/A Thunderstorm Mostly Cloudy
10:20 PM 60.8 °F 55.4 °F 82% 29.77 in 6.2 mi WSW 6.9 mph - N/A   Mostly Cloudy
10:50 PM 60.8 °F 55.4 °F 82% 29.77 in 6.2 mi SW 6.9 mph - N/A   Partly Cloudy
11:20 PM 60.8 °F 55.4 °F 82% 29.77 in 6.2 mi WSW 11.5 mph - N/A   Mostly Cloudy
11:50 PM 59.0 °F 55.4 °F 88% 29.77 in 6.2 mi SSW 6.9 mph - N/A Rain Light Rain